Home > Weather > Kingston > Past weeks

Flag for Norfolk Island Past Weather in Kingston, Norfolk Island — Yesterday and Last 2 Weeks

Now
64 °F

Scattered showers. Passing clouds.


Feels Like: 64 °F
Forecast: 60 / 68 °F
Wind: 10 mph from Southwest

Location: Norfolk Island Airport

Current Time: Jun 27, 2016 at 4:56:57 PM

Latest Report: Jun 27, 2016 at 4:00 PM


Visibility: N/A

Pressure: 30.04 "Hg

Humidity: 78%

Dew Point: 57 °F

Location of KingstonLocation

Past Weather in Kingston — Graph

°F

Kingston Temperature Yesterday

Maximum temperature yesterday: 66 °F (at 12:00 PM)
Minimum temperature yesterday: 61 °F (at 7:00 AM)
Average temperature yesterday: 63 °F

High & Low Weather Summary for the Past Weeks

 TemperatureHumidityPressure
High70 °F (Jun 19, 12:30 PM)100% (Jun 21, 1:00 PM)30.45 "Hg (Jun 21, 1:00 PM)
Low57 °F (Jun 18, 2:30 AM)45% (Jun 13, 7:00 AM)29.74 "Hg (Jun 25, 1:01 PM)
Average64 °F71%30.12 "Hg
* Reported Jun 12 3:00 PM — Jun 27 3:30 PM, Kingston, Weather by CustomWeather, © 2016

Note: Actual official high and low records may vary slightly from our data, if they occured in-between our weather recording intervals... More about our weather records

Advertising

Kingston Weather History for the Previous 24 Hours

Scroll right to see more
 ConditionsComfort  
Time TempWeatherWind HumidityBarometerVisibility
3:30 PM
Mon, Jun 27
66 °FScattered showers. Passing clouds.8 mph64%30.04 "HgN/A
3:00 PM66 °FScattered showers. Passing clouds.9 mph64%30.04 "HgN/A
2:30 PM66 °FPassing clouds.10 mph68%30.04 "HgN/A
2:00 PM66 °FPassing clouds.12 mph68%30.04 "HgN/A
1:30 PM66 °FScattered clouds.10 mph64%30.04 "HgN/A
1:00 PM66 °FScattered clouds.13 mph64%30.04 "HgN/A
12:30 PM66 °FPassing clouds.13 mph68%30.04 "HgN/A
12:00 PM68 °FPassing clouds.12 mph60%30.07 "HgN/A
11:00 AM66 °FPassing clouds.15 mph60%30.07 "HgN/A
10:30 AM68 °FPassing clouds.14 mph60%30.09 "HgN/A
10:00 AM68 °FPassing clouds.13 mph60%30.09 "HgN/A
9:30 AM66 °FPassing clouds.12 mph64%30.09 "HgN/A
9:00 AM64 °FPassing clouds.13 mph68%30.09 "HgN/A
8:30 AM64 °FPassing clouds.12 mph68%30.09 "HgN/A
8:00 AM61 °FScattered showers. Passing clouds.8 mph77%30.07 "HgN/A
7:30 AM64 °FPartly sunny.12 mph68%30.07 "HgN/A
7:00 AM63 °FPartly sunny.12 mph73%30.07 "HgN/A
6:30 AM63 °FBroken clouds.13 mph73%30.04 "HgN/A
6:00 AM63 °FBroken clouds.12 mph73%30.04 "HgN/A
5:30 AM61 °FMostly cloudy.7 mph77%30.01 "HgN/A
5:00 AM61 °FPassing clouds.17 mph83%30.01 "HgN/A
4:30 AM63 °FPassing clouds.13 mph64%30.01 "HgN/A
4:00 AM63 °FPassing clouds.13 mph64%30.01 "HgN/A
3:00 AM63 °FPartly cloudy.14 mph68%30.01 "HgN/A
2:00 AM63 °FPartly cloudy.15 mph64%30.01 "HgN/A
1:30 AM63 °FPassing clouds.13 mph68%29.98 "HgN/A
1:00 AM63 °FClear.15 mph68%29.98 "HgN/A
12:30 AM63 °FPassing clouds.12 mph64%29.98 "HgN/A
12:00 AM61 °FSprinkles. Partly cloudy.14 mph72%30.01 "HgN/A
11:00 PM
Sun, Jun 26
63 °FPassing clouds.15 mph68%30.01 "HgN/A
10:30 PM63 °FPassing clouds.14 mph68%30.01 "HgN/A
10:00 PM63 °FPassing clouds.14 mph68%29.98 "HgN/A
9:00 PM63 °FPassing clouds.16 mph64%30.01 "HgN/A
8:30 PM63 °FPassing clouds.15 mph68%30.01 "HgN/A
8:00 PM64 °FPartly cloudy.15 mph60%30.01 "HgN/A
7:00 PM63 °FPassing clouds.16 mph73%29.98 "HgN/A
6:00 PM63 °FPassing clouds.17 mph73%29.95 "HgN/A
5:30 PM63 °FPassing clouds.17 mph68%29.98 "HgN/A
5:00 PM63 °FSprinkles. Partly cloudy.13 mph73%29.95 "HgN/A
4:30 PM63 °FPassing clouds.15 mph68%29.95 "HgN/A
4:00 PM63 °FPassing clouds.18 mph73%29.95 "HgN/A
Weather by CustomWeather, © 2016

See weather overviewHow to use our weather pages